www.pogodaiklimat.ru
ПОГОДА в Корриентесе

Архив погоды в Корриентесе (Аргентина)

Время
(UTC), дата
10 6.04
11 6.04
12 6.04
13 6.04
14 6.04
15 6.04
16 6.04
17 6.04
18 6.04
19 6.04
20 6.04
21 6.04
22 6.04
23 6.04
00 7.04
01 7.04
02 7.04
03 7.04
04 7.04
05 7.04
06 7.04
07 7.04
08 7.04
09 7.04
10 7.04
11 7.04
12 7.04
13 7.04
14 7.04
15 7.04
16 7.04
17 7.04
18 7.04
19 7.04
20 7.04
21 7.04
22 7.04
23 7.04
00 8.04
01 8.04
02 8.04
03 8.04
04 8.04
05 8.04
06 8.04
07 8.04
08 8.04
09 8.04
10 8.04
11 8.04
12 8.04
13 8.04
14 8.04
15 8.04
16 8.04
17 8.04
18 8.04
19 8.04
20 8.04
21 8.04
22 8.04
23 8.04
00 9.04
01 9.04
02 9.04
03 9.04
04 9.04
05 9.04
06 9.04
07 9.04
08 9.04
09 9.04
10 9.04
11 9.04
12 9.04
13 9.04
14 9.04
15 9.04
16 9.04
17 9.04
18 9.04
19 9.04
20 9.04
21 9.04
22 9.04
23 9.04
00 10.04
01 10.04
02 10.04
03 10.04
04 10.04
05 10.04
06 10.04
07 10.04
08 10.04
09 10.04
10 10.04
11 10.04
12 10.04
13 10.04
14 10.04
15 10.04
16 10.04
17 10.04
18 10.04
19 10.04
20 10.04
21 10.04
22 10.04
23 10.04
00 11.04
01 11.04
02 11.04
03 11.04
04 11.04
05 11.04
06 11.04
07 11.04
08 11.04
09 11.04
10 11.04
11 11.04
12 11.04
13 11.04
14 11.04
15 11.04
16 11.04
17 11.04
18 11.04
19 11.04
20 11.04
21 11.04
22 11.04
23 11.04
00 12.04
01 12.04
02 12.04
03 12.04
04 12.04
05 12.04
06 12.04
07 12.04
08 12.04
09 12.04
11 12.04
12 12.04
13 12.04
14 12.04
15 12.04
16 12.04
17 12.04
18 12.04
19 12.04
20 12.04
21 12.04
22 12.04
23 12.04
00 13.04
01 13.04
02 13.04
03 13.04
04 13.04
05 13.04
06 13.04
07 13.04
08 13.04
09 13.04
Ветер
(напр.,м/с)
Видим. Явления Облачность Т
(С)
Тd
(С)
f
(%)
Тe
(С)
Тes
(С)
Комфортность P
(гПа)
Po
(гПа)
Тmin
(С)
Tmax
(С)
R
(мм)
R24
(мм)
S
(см)
ЮВ 4 10 км 9/0
[Ac trans]
+22.1 +20.7 92 +28 +28 душно 1012.8 1005.6
В 4 10 км 9/1 180 м
[St Ac und]
+22.0 +20.6 92 +28 +28 душно 1013.1 1005.8
ЮВ 4 10 км 6/3 210 м
[St Ac trans Cc]
+22.5 +21.0 91 +29 +31 очень душно 1013.2 1006.0 +21.6 +26.4
В 4 10 км 5/3 240 м
[St Ac trans]
+24.1 +21.3 84 +30 +33 очень душно 1012.5 1005.3
В 4 10 км 4/1 240 м
[St Ac trans]
+26.5 +22.2 77 +34 +40 очень душно 1012.1 1005.0
В 4 10 км 5/3 300 м
[St Ac As]
+27.7 +22.8 75 +37 +42 очень душно 1011.2 1004.1
В 4 10 км 6/3 360 м
[Cu hum Ac trans Ci sp]
+29.1 +23.5 72 +40 +45 очень душно 1010.5 1003.4
С 4 10 км 9/8 450 м
[Cu Sc Ac und Cc]
+29.5 +23.8 71 +40 +42 очень душно 1009.6 1002.5
В 3 10 км 8/8 480 м
[Cu Sc Ac trans Cc]
+30.6 +24.1 68 +42 +44 очень душно 1008.8 1001.7
В 4 10 км 6/3 900 м
[Cu hum Ac trans]
+30.5 +24.6 71 +43 +45 очень душно 1007.4 1000.2
В 3 8000 м гроза, ливневой дождь 8/8 1050 м
[Cb cap As op]
+29.5 +23.2 69 +40 +40 очень душно 1007.0 999.8
ЮЗ 4 4000 м гроза, ливневой дождь 10/9 300 м
[Cb cap As op]
+28.0 +25.5 86 +41 +41 очень душно 1008.2 1001.0
ЮВ 4 10 км в посл. час гроза {дождь} 8/6 450 м
[Cb calv As op]
+23.8 +22.2 91 +31 +31 очень душно 1008.0 1000.8
ЮВ 4 10 км зарница {гроза} 9/6 900 м
[Cb cap Ac As]
+24.3 +23.4 95 +33 +33 очень душно 1008.2 1001.0
Ю 3 8000 м гроза, ливневой дождь 10/5 1050 м
[Cb cap As op]
+24.5 +24.2 98 +34 +34 очень душно 1008.6 1001.4 +22.5 +31.2 35
ЮЗ 3 8000 м гроза, ливневой дождь 10/8 180 м
[Cb cap As op]
+24.8 +24.1 96 +34 +34 очень душно 1010.0 1002.9
ЮЗ 1 2000 м сильн. гроза, ливневой дождь 10/9 150 м
[Cb cap As op]
+25.0 +24.1 95 +34 +34 очень душно 1011.3 1004.2
ЮВ 7 8000 м гроза, ливневой дождь 10/9 90 м
[Cb cap As op]
+21.6 +21.0 96 +27 +27 душно 1010.9 1003.8
ЮВ 4 7000 м гроза, ливневой дождь 10/9 150 м
[Cb cap As op]
+21.1 +20.0 93 +26 +26 душно 1011.1 1004.0
Ю 7 1000 м сильн. гроза, ливневой дождь 10/9 150 м
[Cb cap As op]
+20.8 +19.6 93 +25 +25 комфорт 1011.4 1004.2
Ю 9 7000 м гроза, ливневой дождь 10/9 120 м
[Cb cap As op]
+19.0 +18.7 98 +20 +20 1010.7 1003.6 60
ЮВ 4 8000 м гроза, ливневой дождь 10/9 90 м
[Cb cap As op]
+18.5 +17.9 96 +19 +19 1010.3 1003.2
ЮВ 3 8000 м гроза, ливневой дождь 10/9 90 м
[Cb cap As op]
+18.8 +18.3 97 +20 +20 1010.3 1003.0
Ю 1 10 км в посл. час гроза 8/4 90 м
[Cb cap Ac cast]
+19.2 +18.9 98 +22 +22 комфорт 1009.6 1002.4
ЮВ 3 10 км {гроза} 8/4 180 м
[St Ac cast]
+19.3 +19.0 98 +22 +22 комфорт 1010.7 1003.4
ЮВ 3 10 км 10/10 180 м
[St]
+19.8 +19.5 98 +23 +23 комфорт 1011.4 1004.2
Ю 4 10 км {гроза} 10/10 180 м
[St]
+19.8 +19.5 98 +23 +23 комфорт 1012.1 1004.9 +18.5 +25.4 25
Ю 4 10 км 10/10 180 м
[St]
+20.0 +19.7 98 +23 +23 комфорт 1012.7 1005.4
ЮВ 4 10 км 10/10 150 м
[St]
+20.0 +19.7 98 +23 +23 комфорт 1012.9 1005.7
Ю 4 10 км 10/10 150 м
[St]
+20.6 +20.0 96 +25 +25 комфорт 1013.1 1005.8
Ю 4 10 км 10/10 150 м
[St]
+20.4 +19.8 96 +25 +25 комфорт 1013.3 1006.0
Ю 4 10 км 10/10 150 м
[St]
+20.8 +19.6 93 +26 +26 душно 1012.6 1005.3
Ю 4 7000 м слаб. морось 10/10 150 м
[St]
+20.6 +20.0 96 +25 +25 комфорт 1011.3 1004.0 0.0
Ю 4 10 км в посл. час морось 10/10 180 м
[St]
+20.4 +19.8 96 +25 +25 комфорт 1011.6 1004.2
В 4 10 км {морось} 10/10 180 м
[St]
+21.0 +20.4 96 +26 +26 душно 1012.1 1004.8
СВ 4 10 км {морось} 10/10 240 м
[St]
+21.2 +20.0 93 +26 +26 душно 1012.1 1004.8
СВ 4 10 км 10/10 240 м
[St]
+21.0 +20.1 95 +26 +26 душно 1012.3 1005.0
Ю 3 10 км 10/10 240 м
[St]
+20.7 +20.1 96 +26 +26 душно 1012.7 1005.4
Ю 3 8000 м слаб. морось 10/10 240 м
[St]
+20.7 +20.2 97 +26 +26 душно 1013.1 1005.8 +19.8 +21.4
Ю 3 10 км в посл. час морось 10/10 240 м
[St]
+20.9 +20.4 97 +26 +26 душно 1013.7 1006.4
Ю 1 10 км {морось} 10/10 240 м
[St]
+21.0 +20.4 96 +27 +27 душно 1013.8 1006.5
Ю 1 10 км {морось} 10/10 240 м
[St]
+21.0 +20.4 96 +27 +27 душно 1013.4 1006.1
Ю 1 10 км 10/10 210 м
[Frnb]
+21.2 +20.7 97 +26 +26 душно 1013.5 1006.2
Ю 3 10 км 10/10 210 м
[St]
+21.2 +20.6 96 +26 +26 душно 1013.3 1006.0
Ю 3 10 км {морось} 10/10 240 м
[St]
+21.1 +20.5 96 +26 +26 душно 1012.8 1005.4 0.0
Ю 3 10 км 10/10 180 м
[St]
+20.9 +20.3 96 +26 +26 душно 1012.8 1005.4
Ю 3 10 км 10/10 180 м
[St]
+20.4 +20.4 100 +25 +25 комфорт 1012.4 1005.0
Ю 3 10 км 10/10 180 м
[St]
+20.3 +20.3 100 +25 +25 комфорт 1012.5 1005.2
Ю 3 10 км 10/9 180 м
[St Ac As]
+20.3 +20.0 98 +25 +25 комфорт 1012.9 1005.6
Ю 3 10 км 9/4 210 м
[St Ac As]
+20.4 +19.5 95 +25 +25 комфорт 1013.0 1005.7
Ю 3 10 км 8/5 300 м
[Sc Ac As]
+21.0 +19.6 92 +26 +27 душно 1013.3 1006.0 +20.2 +21.5 0.0
Ю 3 10 км 10/10 360 м
[Sc]
+21.4 +19.9 91 +26 +26 душно 1013.2 1006.0
В 3 10 км 10/10 540 м
[Sc]
+22.0 +20.2 90 +28 +28 душно 1013.1 1005.8
В 1 10 км 10/10 540 м
[Sc]
+22.8 +20.7 88 +30 +30 очень душно 1012.6 1005.4
В 1 10 км 10/10 600 м
[Sc]
+23.4 +20.7 85 +31 +31 очень душно 1012.0 1004.8
С 1 10 км 9/6 600 м
[Sc Ac As]
+24.9 +21.2 80 +31 +34 очень душно 1011.1 1003.8
СВ 1 10 км 10/10 750 м
[Sc]
+25.0 +20.8 78 +31 +31 очень душно 1010.6 1003.4
С 3 10 км 10/10 750 м
[Sc]
+25.0 +20.6 77 +31 +31 очень душно 1010.3 1003.0
В 1 10 км 8/8 750 м
[Sc]
+25.6 +21.1 76 +32 +33 очень душно 1009.8 1002.6
штиль 0 10 км 8/8 750 м
[Sc]
+25.2 +21.3 79 +32 +32 очень душно 1009.5 1002.2
Ю 1 10 км 1/1 750 м
[Sc]
+24.0 +21.5 86 +31 +31 очень душно 1009.1 1001.8
ЮВ 1 10 км ясно +23.3 +21.8 91 +32 +32 очень душно 1009.6 1002.4
ЮВ 3 10 км ясно +22.7 +22.1 96 +31 +31 очень душно 1009.9 1002.6 +21.0 +26.1
ЮВ 4 10 км ясно +22.3 +21.7 96 +29 +29 очень душно 1010.3 1003.0
Ю 3 10 км ясно +21.9 +21.3 96 +28 +28 душно 1010.6 1003.4
ЮВ 3 10 км ясно +22.1 +21.2 95 +29 +29 очень душно 1010.9 1003.7
ЮВ 1 10 км ясно +22.2 +21.1 93 +29 +29 очень душно 1011.1 1003.8
Ю 3 10 км 1/0
[Ac trans]
+22.1 +21.0 93 +29 +29 очень душно 1011.2 1004.0
ЮВ 1 10 км 3/0
[Ac cast]
+21.5 +21.2 98 +27 +27 душно 1011.0 1003.8
ЮВ 1 10 км ясно +21.2 +20.9 98 +27 +27 душно 1010.9 1003.7
Ю 3 10 км 8/0
[Ac cast]
+21.1 +20.9 99 +26 +26 душно 1011.1 1003.8
ЮВ 4 10 км 9/0
[Ac trans]
+21.0 +20.7 98 +26 +26 душно 1012.0 1004.8
Ю 3 8000 м дымка 9/0
[Ac trans]
+21.2 +20.9 98 +27 +27 душно 1012.5 1005.3
Ю 3 8000 м дымка 9/0
[Ac trans]
+21.6 +21.3 98 +28 +28 очень душно 1013.4 1006.2
Ю 4 8000 м дымка 6/0
[Ac As]
+23.2 +22.0 93 +32 +33 очень душно 1013.9 1006.6 +20.6 +23.2
Ю 4 10 км 6/0
[Ac trans]
+25.6 +23.0 86 +34 +37 очень душно 1014.2 1007.0
Ю 4 10 км 8/4 750 м
[Sc Ac As]
+26.8 +23.0 80 +36 +38 очень душно 1014.0 1006.8
Ю 4 10 км 9/6 600 м
[Sc Ac As]
+26.8 +23.3 81 +36 +38 очень душно 1013.9 1006.6
Ю 3 10 км 10/6 600 м
[Sc Ac As]
+27.2 +23.8 82 +37 +39 очень душно 1013.2 1006.0
Ю 4 10 км 10/8 600 м
[Sc Ac As]
+27.2 +23.8 82 +37 +38 очень душно 1012.2 1005.0
В 4 10 км 10/8 600 м
[Sc Ac As]
+27.2 +23.5 80 +37 +37 очень душно 1011.4 1004.2
В 4 10 км 10/8 600 м
[Sc Ac As]
+27.4 +24.3 83 +38 +39 очень душно 1010.9 1003.7
Ю 3 10 км 10/8 600 м
[Sc Ac As]
+27.0 +24.7 87 +38 +38 очень душно 1010.9 1003.7
Ю 3 10 км 10/8 600 м
[Sc Ac As]
+27.0 +24.4 86 +38 +38 очень душно 1010.5 1003.3
Ю 4 10 км 8/4 900 м
[Sc Ac cast Cs]
+26.1 +23.8 87 +36 +36 очень душно 1010.6 1003.4
Ю 7 10 км 10/0
[Ac As]
+25.7 +23.7 89 +35 +35 очень душно 1010.8 1003.6
Ю 4 10 км 3/0
[Ac cast]
+25.5 +23.0 86 +34 +34 очень душно 1011.1 1003.8 +23.0 +29.1
ЮВ 9 10 км ясно +24.5 +22.3 88 +32 +32 очень душно 1011.6 1004.5
ЮВ 7 10 км 8/0
[Ac trans]
+23.7 +21.3 86 +30 +30 очень душно 1011.6 1004.5
ЮВ 3 10 км 5/0
[Ac cast]
+23.2 +20.6 85 +31 +31 очень душно 1011.8 1004.6
ЮВ 4 10 км 9/0
[Ac As]
+22.7 +20.6 88 +30 +30 очень душно 1012.0 1004.9
ЮВ 3 10 км 10/0
[Ac As]
+22.0 1011.7 1004.6
Ю 7 10 км 10/0
[Ac As]
+22.2 +20.2 88 +28 +28 душно 1011.5 1004.4
Ю 4 10 км 10/3 240 м
[St Ac As]
+22.0 +20.0 88 +28 +28 душно 1011.2 1004.1
ЮВ 4 10 км в посл. час дождь 10/6 240 м
[St As op]
+21.6 +19.3 87 +27 +27 душно 1010.5 1003.3
Ю 7 8000 м слаб. дождь 10/4 180 м
[St As op]
+21.3 +19.8 91 +26 +26 душно 1010.4 1003.2
ЮВ 1 10 км в посл. час дождь 10/6 750 м
[Sc Ac As]
+21.2 +19.5 90 +26 +26 душно 1011.0 1003.8
Ю 3 10 км слаб. дождь 9/4 900 м
[Sc Ac As]
+21.0 +19.9 93 +26 +27 душно 1011.0 1003.8
В 3 10 км в посл. час дождь 9/3 1200 м
[Sc Ac As Cs]
+21.6 +19.7 89 +27 +28 душно 1012.1 1004.9 +20.8 +25.6 0.8
Ю 4 10 км {дождь} 9/1 1200 м
[Sc Ac As Cs]
+23.2 +21.1 88 +31 +33 очень душно 1012.1 1004.9
Ю 4 8000 м осадки на расстоянии 8/1 450 м
[Sc Ac As Cs]
+24.2 +21.8 86 +31 +35 очень душно 1011.6 1004.4
Ю 4 10 км 10/5 540 м
[Sc Ac As]
+24.8 +22.4 87 +32 +34 очень душно 1010.7 1003.4
ЮВ 4 10 км 10/5 540 м
[Cb cap Ac As]
+25.0 +22.7 87 +33 +34 очень душно 1010.4 1003.2
ЮВ 4 3000 м гроза, ливневой дождь 10/8 300 м
[Cb cap As op]
+23.6 +23.0 96 +31 +32 очень душно 1009.9 1002.6
Ю 3 5000 м гроза, ливневой дождь 10/8 300 м
[Cb cap As op]
+23.4 +23.1 98 +33 +33 очень душно 1008.6 1001.4 6
Ю 4 2000 м гроза, ливневой дождь 10/8 180 м
[Cb cap As op]
+23.3 +23.0 98 +33 +33 очень душно 1008.8 1001.6
Ю 3 4500 м ливневой дождь, в посл. час гроза 10/9 180 м
[St As op]
+23.4 +23.1 98 +33 +33 очень душно 1009.1 1001.8
СЗ 3 1500 м сильн. дождь {гроза} 10/9 180 м
[St As op]
+22.4 +22.3 99 +30 +30 очень душно 1009.9 1002.6
Ю 4 6000 м дождь 10/5 180 м
[St As op]
+22.4 +22.4 100 +30 +30 очень душно 1010.1 1002.9
Ю 4 7000 м слаб. дождь 10/6 180 м
[St As op]
+22.6 +22.3 98 +30 +30 очень душно 1010.9 1003.7
Ю 9 7000 м слаб. дождь {гроза} 10/6 180 м
[St As op]
+22.2 +22.2 100 +30 +30 очень душно 1011.4 1004.2 +21.6 +25.8 40
Ю 4 10 км в посл. час дождь 10/6 180 м
[St As op]
+22.2 +21.9 98 +29 +29 очень душно 1012.7 1005.4
Ю 7 7000 м морось {дождь} 10/10 180 м
[St]
+22.2 +21.6 96 +29 +29 очень душно 1013.2 1006.0
Ю 7 7000 м морось {дождь} 10/10 180 м
[St]
+22.2 +21.9 98 +29 +29 очень душно 1013.5 1006.2
Ю 7 8000 м морось 10/10 180 м
[St]
+22.0 +21.7 98 +29 +29 очень душно 1013.5 1006.2
Ю 9 10 км в посл. час морось 10/10 180 м
[St]
+20.6 +19.7 95 +24 +24 комфорт 1013.0 1005.8
Ю 7 10 км {дождь, морось} 10/10 180 м
[St]
+20.2 +19.6 96 +24 +24 комфорт 1012.9 1005.7 0.0
Ю 7 10 км 10/10 180 м
[St]
+20.2 +19.6 96 +24 +24 комфорт 1012.8 1005.6
Ю 7 10 км 10/10 180 м
[St]
+20.2 +19.9 98 +24 +24 комфорт 1012.8 1005.6
Ю 7 7000 м слаб. морось 10/10 180 м
[St]
+20.0 +20.0 100 +23 +23 комфорт 1013.5 1006.2
Ю 5 1500 м морось 10/10 150 м
[St]
+19.7 +19.5 99 +22 +22 комфорт 1014.0 1006.6
Ю 5 4000 м морось 10/10 150 м
[St]
+19.5 +19.3 99 +22 +22 комфорт 1014.5 1007.2
ЮВ 7 3000 м морось 10/10 180 м
[St]
+19.4 +18.9 97 +21 +21 комфорт 1015.0 1007.7 +19.4 +22.2 1
ЮВ 7 4000 м морось 10/10 210 м
[St]
+19.3 +18.8 97 +21 +21 комфорт 1015.6 1008.2
ЮВ 7 3500 м морось 10/10 210 м
[St]
+19.7 +19.1 96 +22 +22 комфорт 1016.0 1008.6
Ю 4 8000 м слаб. морось 10/10 240 м
[St]
+20.0 +19.2 95 +23 +23 комфорт 1015.7 1008.4
Ю 4 10 км в посл. час морось 10/10 300 м
[Sc]
+21.2 +19.8 92 +26 +26 душно 1015.2 1007.8
ЮВ 4 4000 м морось 10/10 270 м
[St]
+22.0 +20.2 90 +28 +28 душно 1014.8 1007.4
ЮВ 4 10 км в посл. час морось 10/10 360 м
[Sc]
+22.4 +20.4 88 +29 +29 очень душно 1014.2 1006.9 0.2
Ю 4 4000 м морось 10/10 240 м
[St]
+21.7 +21.2 97 +28 +28 душно 1014.1 1006.8
Ю 4 2000 м сильн. морось 10/10 180 м
[St]
+21.4 +21.1 98 +27 +27 душно 1013.8 1006.5
Ю 4 2000 м сильн. морось 10/10 180 м
[St]
+21.9 +21.6 98 +28 +28 душно 1014.0 1006.6
Ю 4 4000 м морось 10/10 180 м
[St]
+20.8 +20.3 97 +26 +26 душно 1014.2 1006.9
Ю 4 6000 м слаб. морось 10/10 210 м
[St]
+20.6 +20.3 98 +25 +25 комфорт 1014.4 1007.0
Ю 4 10 км в посл. час морось 10/10 240 м
[St]
+20.8 +20.2 96 +26 +26 душно 1015.1 1007.8 +19.0 +23.0 0.4
Ю 4 6000 м морось 10/10 180 м
[St]
+20.1 +20.1 100 +24 +24 комфорт 1015.2 1007.8
Ю 4 10 км в посл. час морось 10/10 210 м
[St]
+20.0 +19.2 95 +23 +23 комфорт 1015.8 1008.5
ЮВ 4 10 км {морось} 10/10 240 м
[St]
+20.0 +19.2 95 +23 +23 комфорт 1015.7 1008.4
ЮВ 4 10 км 10/10 240 м
[St]
+19.9 +19.0 95 +23 +23 комфорт 1015.3 1008.0
Ю 4 10 км 10/10 240 м
[St]
+19.8 +18.9 95 +23 +23 комфорт 1015.3 1008.0
ЮВ 3 10 км {морось} 10/10 180 м
[St]
+19.6 +19.0 96 +23 +23 комфорт 1015.2 1007.8 0.0
ЮВ 4 10 км 10/10 180 м
[St]
+19.6 +18.7 95 +22 +22 комфорт 1014.7 1007.4
Ю 4 8000 м слаб. морось 10/10 180 м
[St]
+19.4 +18.3 93 +22 +22 комфорт 1014.7 1007.4
Ю 4 10 км в посл. час морось 10/10 180 м
[St]
+19.1 +18.5 96 +21 +21 комфорт 1014.7 1007.4
Ю 4 10 км 9/8 240 м
[St Ac As]
+18.8 +17.8 94 +20 +20 1014.5 1007.2
ЮВ 4 10 км {морось} 9/8 240 м
[St Ac As]
+19.8 +18.4 92 +23 +23 комфорт 1014.8 1007.4 +18.5 +21.3 0.0
ЮВ 4 10 км 8/5 300 м
[Sc Ac As]
+20.4 +18.8 91 +24 +26 комфорт 1014.8 1007.4
ЮВ 4 10 км 9/8 450 м
[Sc Ac As]
+22.2 +19.4 84 +28 +29 душно 1014.8 1007.4
ЮВ 4 10 км в посл. час дождь 10/10 600 м
[Sc]
+22.1 +20.4 90 +28 +28 душно 1014.8 1007.4
В 3 10 км {дождь} 10/10 540 м
[Sc]
+22.8 +20.4 86 +30 +30 очень душно 1013.8 1006.6
В 3 10 км 10/10 360 м
[Sc]
+23.2 +20.8 86 +31 +31 очень душно 1013.0 1005.8
Ю 4 10 км {дождь} 9/6 540 м
[Sc Ac As]
+23.6 +21.2 86 +30 +31 очень душно 1012.0 1004.8 0.3
ЮВ 3 10 км 10/10 450 м
[Sc]
+24.4 +22.0 86 +31 +31 очень душно 1011.7 1004.5
Ю 1 10 км 10/10 450 м
[Sc]
+24.4 +22.3 88 +32 +32 очень душно 1011.1 1003.8
Ю 1 10 км 10/10 450 м
[Sc]
+24.5 +22.3 88 +32 +32 очень душно 1011.0 1003.8
Ю 1 10 км 10/10 450 м
[Sc]
+24.0 +22.5 91 +31 +31 очень душно 1010.9 1003.7
Ю 3 10 км 8/8 750 м
[Sc]
+23.7 +22.4 92 +31 +31 очень душно 1010.8 1003.6
Ю 3 10 км 8/8 750 м
[Sc]
+23.2 +22.6 96 +32 +32 очень душно 1011.5 1004.2 +19.8 +25.0
Ю 3 10 км 8/8 750 м
[Sc]
+22.6 +22.2 98 +30 +30 очень душно 1011.8 1004.6
ЮВ 3 10 км 10/10 240 м
[Sc]
+22.8 +22.4 98 +31 +31 очень душно 1012.1 1004.9
Ю 3 3000 м дождь 10/10 180 м
[Sc]
+22.8 +22.7 99 +31 +31 очень душно 1012.2 1005.0
Ю 3 10 км в посл. час дождь 10/10 120 м
[Sc]
+22.6 +22.5 99 +31 +31 очень душно 1011.4 1004.2
ЮВ 3 6000 м дымка {дождь} 10/10 60 м
[Sc]
+22.4 +22.4 100 +30 +30 очень душно 1011.1 1003.8
ЮВ 3 6000 м дымка {дождь} 10/10 60 м
[Sc]
+22.6 +22.5 99 +31 +31 очень душно 1010.9 1003.7 7
Ю 1 6000 м дымка 10/10 120 м
[Sc]
+22.5 +22.1 98 +30 +30 очень душно 1010.7 1003.4
Ю 1 6000 м дымка 10/10 120 м
[Sc]
+22.6 +22.6 100 +31 +31 очень душно 1010.2 1003.0
Ю 1 6000 м дымка 10/10 120 м
[St]
+22.6 +22.6 100 +31 +31 очень душно 1010.3 1003.0
Местоположение метеостанции Корриентес (Аргентина): широта -27.45 долгота -58.76 высота над уровнем моря 62 м.
В архиве по умолчанию представлена погода в Корриентесе за последнюю неделю. Архивные данные за месяц целиком и за предыдущие месяцы, начиная с января 2011 года, Вы можете получить, выбрав интересующий диапазон дат из раскрывающегося списка и нажав кнопку "Найти!".
*Определитесь, кто Вы:
Внимание! Время в таблицах - всемирное. Для получения местного времени необходимо прибавить поправку, которая равна -3 ч.
Некоторые строки с данными для отдельных станций могут быть выделены курсивом. Это означает, что фактические данные отсутствуют по различным причинам, а приведенные значения являются расчетными модельными данными для данного пункта наблюдений.
Смотрите также архив погоды в соседних городах и на ближайших метеорологических станциях:
Партнеры нашего сайта:      
Пояснения к столбцам:
  • Ветер - указаны скорость ветра в м/с - средняя за 10 мин, порывы в срок и между сроками (в фигурных скобках) и направление, откуда дует ветер: С - северный,
  • СВ - северо-восточный, В - восточный, ЮВ - юго-восточный, Ю - южный, ЮЗ - юго-западный, З - западный, СЗ - северо-западный.
  • Видимость - горизонтальная дальность видимости в метрах или километрах. При видимости от 1 до 10 км при отсутствии осадков обычно наблюдается дымка, при ухудшении видимости до 1 км и менее - туман. В сухую погоду видимость может ухудшаться дымом, пылью или мглою.
  • Явления - указаны атмосферные явления, наблюдавшиеся в срок или в последний час перед сроком; фигурными скобками обозначены явления, наблюдавшиеся между сроками (за 1-3 часа до срока); квадратными скобками обозначены град или гололедные отложения с указанием их диаметра в мм.
  • Облачность - указаны через наклонную черту общая и нижняя облачность в баллах и высота нижней границы облаков в метрах; квадратными скобками обозначены формы облаков: Ci - перистые, Cs - перисто-слоистые, Cc - перисто-кучевые, Ac - высококучевые, As - высокослоистые, Sc - слоисто-кучевые, Ns - слоисто-дождевые, Cu - кучевые, Cb - кучево-дождевые. Подробнее классификацию облаков см. в Атласе облаков (PDF).
  • T - Температура воздуха - температура, измеренная на высоте 2 м над землей.
  • Td - Температура точки росы - температура, при понижении до которой содержащийся в воздухе водяной пар достигнет насыщения.
  • f - Относительная влажность воздуха - влажноcть воздуха, измеренная на высоте 2 м над землей.
  • Te - Эффективная температура - температура, которую ощущает одетый по сезону человек в тени. Характеристика душности погоды. При расчете учитывается влияние влажности воздуха и скорости ветра на теплоощущения человека.
  • Tes - Эффективная температура на солнце - температура, которую ощущает человек, с поправкой на солнечный нагрев. Характеристика знойности погоды. Зависит от высоты солнца над горизонтом, облачности и скорости ветра. Ночью, в пасмурную погоду, а также при ветре 12 м/с и более поправка равна нулю.
  • P - Атмосферное давление - приведенное к уровню моря атмосферное давление.
  • Po - Атмосферное давление - измеренное на уровне метеостанции атмосферное давление.
  • Tmin - Минимальная температура - минимум температуры воздуха на высоте 2 м над землей.
  • Tmax - Максимальная температура - максимум температуры воздуха на высоте 2 м над землей.
  • R - Количество осадков - Количество выпавших осадков за период времени, мм. При наведении курсора мыши на число - период времени, за который выпало указанное количество осадков.
  • R24 - Количество осадков - Количество выпавших осадков за 24 часа, мм.
  • S - Снежный покров - Высота снежного покрова, см. При наведении курсора мыши на число - состояние снежного покрова и степень покрытия местности в баллах.